Preview of NWS' New Version of Forecast
This preview is not operational and should not be used for support decisions.

Regional Weather Roundup (RWR)

Issued by Wakefield, VA (AKQ)

                            
000
ASUS41 KAKQ 152115
RWRAKQ

REGIONAL WEATHER ROUNDUP
NATIONAL WEATHER SERVICE WAKEFIELD VA
500 PM EDT MON OCT 15 2018

Note: "fair" indicates few or no clouds below 12,000 feet with no
significant weather and/or obstructions to visibility. * = Denotes
station may not report precipitation (e.g., rain,snow,etc.),
thunder or fog.

VAZ042-051-052>054-056-152200-
NORTHERN VIRGINIA
  
CITY           SKY/WX    TMP DP  RH WIND       PRES   REMARKS
WASH NATIONAL  CLOUDY    70  63  78 S10       29.99F                  
DULLES         LGT RAIN  65  64  97 SW5       29.99S                  
FORT BELVOIR   FAIR      69  67  94 S3        29.99F                  
QUANTICO       PTSUNNY   70  67  90 S7        30.00F                  
FREDERICKSBRG* FAIR      76  66  71 SW10G16   30.00S                  
STAFFORD*      FAIR      75  68  78 SW8       30.04F                  
WARRENTON      FAIR      72  63  72 S7        29.98F                  
CULPEPER*      FAIR      73  64  71 S6        29.99F                  
MANASSAS*      PTSUNNY   70  65  84 S6        29.99F                  
LEESBURG*      LGT RAIN  61  61 100 S7        29.98F                  
WINCHESTER     CLOUDY    64  61  88 SW3       29.98F                  
FRONT ROYAL*   MOCLDY   N/A N/A N/A S6        29.96F                  
LURAY*         FAIR      72  63  73 S8        29.99S                  
$$

VAZ048-049-060>072-079>083-152200-
CENTRAL AND SOUTH CENTRAL VIRGINIA
  
CITY           SKY/WX    TMP DP  RH WIND       PRES   REMARKS
RICHMOND       PTSUNNY   80  65  59 SW17      30.04F                  
CHESTERFIELD*  FAIR      79  66  64 S9G17     30.05F                  
PETERSBURG*    LGT RAIN  78  64  60 SW8       30.06F                  
HANOVER        CLOUDY    80  65  59 SW10      30.04F                  
TAPPAHANNOCK*  FAIR      79  66  65 S8G16     30.03S                  
QUINTON*       CLOUDY    79  65  63 MISG      30.04S                  
CHARLOTTSVILLE FAIR      76  64  66 SW10      30.01F                  
GORDONSVILLE*  FAIR      74  68  81 SW12      30.00F                  
ORANGE*        FAIR      72  64  78 S10       30.00F                  
LOUISA*        FAIR      74  66  75 S9        30.06F                  
BUMPASS*       CLOUDY    76  65  69 SW9G20    30.03S                  
FARMVILLE*     NOT AVBL                                               
CREWE*         FAIR      77  62  59 SW7G23    30.06S                  
FORT PICKETT*  FAIR      78  66  65 SW12      30.07S                  
CHASE CITY*    MOCLDY    78  65  62 S3        30.07F                  
CLARKSVILLE*   FAIR      79  64  61 SW10G16   30.07S                  
SOUTH HILL*    FAIR      78  68  71 SW8       30.13F                  
LAWRENCEVILLE* FAIR      79  65  62 MISG      30.07S                  
EMPORIA*       NOT AVBL                                               
$$

VAZ088>098-152200-
SOUTHEAST VIRGINIA
  
CITY           SKY/WX    TMP DP  RH WIND       PRES   REMARKS
NORFOLK        CLOUDY    82  68  62 SW17      30.07S                  
VIRGINIA BEACH PTSUNNY   80  66  62 SW16      30.07S                  
NORFOLK NAVAL  PTSUNNY   80  66  62 SW10      30.08S                  
WEST POINT*    FAIR      78  67  69 SW9G16    30.06S                  
SALUDA*        FAIR      80  70  70 S9        30.03F                  
NEWPORT NEWS   CLOUDY    80  66  62 SW9       30.06F                  
LANGLEY AFB    PTSUNNY   80  66  62 SW16G22   30.06F                  
FORT EUSTIS    FAIR      80  66  63 SW6       30.04F                  
WILLIAMSBURG*  FAIR      81  64  57 CALM      30.06F                  
HR EXEC AP*    MOCLDY    80  68  66 SW8       30.08F                  
FRANKLIN*      FAIR      81  67  63 SW9       30.08S                  
US460-WAKEFLD  FAIR      80  65  59 SW8       30.06F                  
$$

VAZ020-022-025-037-045-152200-
WEST CENTRAL AND SOUTHWEST VIRGINIA
  
CITY           SKY/WX    TMP DP  RH WIND       PRES   REMARKS
STAUNTON*      PTSUNNY   72  62  70 SW7       30.06R                  
WAYNESBORO*    FAIR      74  62  65 SW13      30.04F                  
HOT SPRINGS VA CLOUDY    63  61  94 W18G26    30.13F                  
LYNCHBURG      PTSUNNY   75  64  68 S14G23    30.06F                  
DANVILLE       FAIR      79  63  57 SW13G22   30.07F                  
SOUTH BOSTON*  FAIR      79  63  57 SW6       30.07S                  
MARTINSVILLE   PTSUNNY   77  64  65 SW3       30.11S                  
ROANOKE        MOSUNNY   80  61  52 S7        30.07F                  
BLACKSBURG     CLOUDY    72  61  67 SW7       30.13F                  
DUBLIN*        PTSUNNY  N/A N/A N/A W10G20    30.12F                  
MARION*        FAIR      73  63  71 W7G20     30.16S                  
HILLSVILLE*    FAIR      70  64  82 SE3       30.14F                  
RICHLANDS*     CLOUDY    66  58  75 SW7       30.15S                  
WISE*          CLOUDY    64  64 100 SW9       30.17R                  
ABINGDON*      CLOUDY    75  62  64 NW10G16   30.14R                  
$$

MDZ021>025-VAZ099-100-152200-
SOUTHERN MARYLAND AND THE DELMARVA PENINSULA
  
CITY           SKY/WX    TMP DP  RH WIND       PRES   REMARKS
PATUXENT RIVER PTSUNNY   81  67  62 SW6       29.99F                  
BAY BRIDGE APT FAIR      72  66  83 S6        29.97F                  
LEONARDTOWN    PTSUNNY   73  64  73 SW6       30.01F                  
DOVER          FAIR      73  65  76 S15       29.97F                  
GEORGETOWN     CLOUDY    76  67  73 SW10      30.01F                  
EASTON         PTSUNNY   73  68  83 SW7       30.03F                  
CAMBRIDGE      MOSUNNY   75  68  78 VRB5      29.99F                  
SALISBURY      FAIR      77  68  73 S10       30.01F                  
TANGIER        FAIR      79  72  78 S8G17     30.02F                  
OCEAN CITY     FAIR      78  66  66 SW9       30.04S                  
WALLOPS ISLAND PTSUNNY   81  64  56 SW12      30.04                   
ACCOMACK*      FAIR      80  68  67 SW10G17   30.05S                  
$$

NCZ012>017-030>032-152200-
NORTH CENTRAL AND EASTERN NORTH CAROLINA
  
CITY           SKY/WX    TMP DP  RH WIND       PRES   REMARKS
ROANOKE RAPIDS FAIR      79  64  61 SW10      30.09S                  
RALEIGH        FAIR      80  67  64 SW13      30.10F                  
ELIZABETH CITY PTSUNNY   82  67  60 SW10      30.09S                  
AHOSKIE*       CLOUDY    77  69  76 S5        30.10S                  
EDENTON*       CLOUDY    80  70  70 W6        30.11F                  
CURRITUCK*     CLOUDY    81  69  67 MISG      30.09S                  
KILL DEVIL HLS FAIR      78  68  71 S6        30.09F                  
MANTEO         CLOUDY    77  70  77 S15       30.11F                  
CAPE HATTERAS  PTSUNNY   81  71  71 S12       30.13F                  
TARBORO*       FAIR      78  68  70 S7        30.09F                  
GOLDSBORO      CLOUDY    78  70  74 SW6       30.10S                  
WASHINGTON     PTSUNNY   80  67  65 W5        30.11F                  
GREENVILLE     FAIR      79  68  69 SW6       30.12F                  
NEW BERN       CLOUDY    82  70  66 W6        30.12S                  
WILMINGTON     FAIR      83  66  56 S10       30.11S                  
$$

VAZ048-152200-
ELSEWHERE
  
CITY           SKY/WX    TMP DP  RH WIND       PRES   REMARKS
HARRISBURG PA  PTSUNNY   64  60  87 VRB7      29.92F                  
BALTIMORE      LGT RAIN  66  65  96 SW3       29.97F                  
ANNAPOLIS      FAIR      74  64  71 SW6       29.97F                  
ANDREWS AFB    FAIR      69  64  85 SW8       29.97F                  
PHILADELPHIA   CLOUDY    68  63  84 SW15G22   29.95F                  
GREENSBORO     FAIR      78  65  63 SW12      30.10F                  
ROCKY MOUNT    FAIR      79  69  71 S12       30.10S                  
$$

VAZ100-152200-
MARINE
  
STATION/POSITION TIME  TEMP    WIND        PRES    WAVE   SWELL
                       AIR SEA DIR/SP/G            HT/PER HT/PER
                 (UTC) (F)     (DEG/KT/KT) (MB)    (FT/S) (FT/S)
BRANDYWINE LGT   2042   73     240/ 18/ 20 1016.2F
CAPE MAY NJ      2048   72 69  240/ 12/ 13 1015.6F
LEWES DE         2042   75 69  240/  8/ 10 1016.3F
15NM E FENWICK I 2050      71              1017.1F   4/ 6   2/13
OCEAN-CITY-INLET 2042   75 71  220/ 12/ 15 1017.7F
WACHAPREAGUE VA  2048   80 70  240/  9/ 13 1017.4F
THOMAS POINT MD  2100   71 69  210/ 10/ 10 1015.7F
GOOSES REEF MD   2100   73 71  180/  2/  2 1015.9
COVE POINT MD    2042   76     220/  9/ 11 1016.3F
SOLOMONS ISLAND  2048   76 72  210/  7/  9 1015.5F
BISHOPS HEAD MD  2048   76 69  210/ 12/ 15 1016.7F
PINEY POINT MD   2036          230/ 11/ 12   N/A
POTOMAC MD       2100   77 71  220/ 16/ 19 1015.2
CAMBRIDGE MD     2042   74 70              1016.9F
LEWISETTA VA     2036   79 70  230/ 11/ 14 1016.0F
RAPPAHANNOCK LGT 2048          210/ 11/ 11 1018.3F
STINGRAY PT      2100   78 73  240/ 10/ 12 1018.5    1/ 2
YORK RVR RNG VA  2048   78     240/ 12/ 14 1018.2S
YORKTOWN VA      2036   80 75  220/ 10/ 12 1017.3F
DOMINION TERM VA 2036   78     220/ 11/ 14 1018.4F
KIPTOPEKE VA     2036      74  240/  9/ 11   N/A
CAPE HENRY VA    2048   81     240/ 12/ 19 1016.7F
WILLOUBY STN VA  2036   79     220/ 16/ 20 1017.4F
S CRANEY ISL VA  2048   80     230/ 10/ 16 1018.0F
CAPE HENRY BUOY  2100      75                N/A     2/ 4
1ST LANDING BUOY 2050   79     240/ 14/ 17 1017.7S
64NM E OF VA BCH 2050   71 69  190/ 10/ 12 1020.1F   2/ 6   2/ 6
DUCK PIER NC     2048   79 75  190/ 12/ 16 1018.8F
44100 DUCK FRF   2045      75                N/A     2/ 4
44056 DUCK FRF   2100      75                N/A     2/13
OREGON INLET NC  2036   74 71  190/ 10/ 11 1020.1F
HATTERAS NC      2048   76 73  240/ 11/ 16 1020.5S
DIAMOND SHLS NC  2100   80     190/ 16/ 17 1020.9
CAPE LOOKOUT NC  2100          210/  5/  7 1020.7F
$$